TimeEST,TemperatureF,Dew PointF,Humidity,Sea Level PressureIn,VisibilityMPH,Wind Direction,Wind SpeedMPH,Gust SpeedMPH,PrecipitationIn,Events,Conditions,WindDirDegrees,DateUTC
12:06 AM,44.6,42.8,93,29.96,8.0,West,4.6,-,N/A,,Overcast,270,2012-12-25 05:06:00
12:15 AM,44.6,42.8,93,29.96,8.0,WSW,4.6,-,N/A,,Overcast,250,2012-12-25 05:15:00
12:41 AM,44.6,42.8,93,29.96,8.0,WNW,5.8,-,N/A,,Overcast,290,2012-12-25 05:41:00
12:53 AM,44.1,42.1,93,29.98,8.0,Variable,4.6,-,N/A,,Overcast,0,2012-12-25 05:53:00
1:53 AM,44.1,41.0,89,29.98,7.0,Variable,4.6,-,N/A,,Overcast,0,2012-12-25 06:53:00
2:31 AM,42.8,39.2,87,29.99,9.0,WNW,6.9,-,N/A,,Overcast,300,2012-12-25 07:31:00
2:53 AM,42.1,39.0,89,30.00,8.0,West,4.6,-,N/A,,Overcast,280,2012-12-25 07:53:00
3:03 AM,42.8,39.2,87,30.00,8.0,WNW,3.5,-,N/A,,Overcast,290,2012-12-25 08:03:00
3:53 AM,39.9,37.0,89,30.01,6.0,NW,5.8,-,N/A,,Overcast,310,2012-12-25 08:53:00
4:53 AM,37.9,35.1,89,30.03,7.0,Variable,5.8,-,N/A,,Overcast,0,2012-12-25 09:53:00
5:53 AM,37.9,35.1,89,30.04,7.0,Calm,Calm,-,N/A,,Overcast,0,2012-12-25 10:53:00
6:53 AM,37.0,33.1,86,30.08,5.0,Variable,3.5,-,N/A,,Overcast,0,2012-12-25 11:53:00
7:53 AM,35.1,33.1,92,30.08,5.0,Calm,Calm,-,N/A,,Overcast,0,2012-12-25 12:53:00
8:34 AM,35.6,33.8,93,30.04,2.0,NE,3.5,-,N/A,,Overcast,40,2012-12-25 13:34:00
8:38 AM,35.6,33.8,93,30.05,1.8,Calm,Calm,-,N/A,,Overcast,0,2012-12-25 13:38:00
8:46 AM,33.8,33.8,100,30.05,1.2,NNE,3.5,-,N/A,,Overcast,30,2012-12-25 13:46:00
8:53 AM,34.0,33.1,96,30.08,1.0,NNE,4.6,-,N/A,,Overcast,20,2012-12-25 13:53:00
9:04 AM,33.8,33.8,100,30.07,0.8,Calm,Calm,-,N/A,,Overcast,0,2012-12-25 14:04:00
9:40 AM,33.8,33.8,100,30.09,1.0,Calm,Calm,-,N/A,,Overcast,0,2012-12-25 14:40:00
9:53 AM,34.0,33.1,96,30.12,1.2,Calm,Calm,-,N/A,,Overcast,0,2012-12-25 14:53:00
10:46 AM,35.6,33.8,93,30.10,1.8,NNE,4.6,-,N/A,,Overcast,30,2012-12-25 15:46:00
10:53 AM,35.1,33.1,92,30.12,1.8,NNE,3.5,-,N/A,,Overcast,30,2012-12-25 15:53:00
11:53 AM,35.1,33.1,92,30.09,1.8,ENE,4.6,-,N/A,,Overcast,60,2012-12-25 16:53:00
12:15 PM,35.6,33.8,93,30.06,2.0,Variable,3.5,-,N/A,,Overcast,0,2012-12-25 17:15:00
12:53 PM,35.1,33.1,92,30.08,2.5,Variable,3.5,-,N/A,,Overcast,0,2012-12-25 17:53:00
1:53 PM,36.0,33.1,89,30.08,3.0,NE,4.6,-,N/A,,Overcast,40,2012-12-25 18:53:00
2:21 PM,35.6,33.8,93,30.07,4.0,Variable,3.5,-,N/A,,Overcast,0,2012-12-25 19:21:00
2:53 PM,36.0,32.0,86,30.10,4.0,Calm,Calm,-,N/A,,Overcast,0,2012-12-25 19:53:00
3:53 PM,35.1,32.0,89,30.07,4.0,NE,3.5,-,N/A,,Overcast,40,2012-12-25 20:53:00
4:53 PM,34.0,32.0,92,30.06,3.0,Calm,Calm,-,N/A,,Overcast,0,2012-12-25 21:53:00
5:53 PM,34.0,30.9,89,30.06,4.0,NE,8.1,-,N/A,,Overcast,40,2012-12-25 22:53:00
6:53 PM,33.1,30.9,92,30.05,5.0,Variable,5.8,-,N/A,,Overcast,0,2012-12-25 23:53:00
7:53 PM,34.0,30.0,85,30.04,6.0,NE,5.8,-,N/A,,Overcast,40,2012-12-26 00:53:00
8:53 PM,34.0,30.0,85,30.00,6.0,NE,10.4,17.3,N/A,,Overcast,50,2012-12-26 01:53:00
9:53 PM,34.0,30.9,89,30.01,7.0,Variable,4.6,-,N/A,,Overcast,0,2012-12-26 02:53:00
10:53 PM,34.0,30.9,89,29.99,6.0,Variable,4.6,-,0.00,Rain,Light Rain,0,2012-12-26 03:53:00
11:53 PM,34.0,32.0,92,29.96,3.0,Variable,6.9,-,0.01,Rain,Light Rain,0,2012-12-26 04:53:00